Regional Weather Roundup
Issued by NWS Glasgow, MT

Home | Current Version | Previous Version | Text Only | Print | Product List | Glossary On
Versions: 1 2 3 4 5 6 7 8 9 10 11 12 13 14 15 16 17 18 19 20 21 22 23 24 25 26 27 28 29 30 31 32 33 34 35 36 37 38 39 40 41 42 43 44 45 46 47 48 49 50
000
ASUS45 KGGW 251215
RWRGGW
HOURLY WEATHER ROUNDUP FOR NORTHEAST MONTANA
NATIONAL WEATHER SERVICE GLASGOW MONTANA
600 AM MDT FRI JUL 25 2014

NOTE: "FAIR" INDICATES FEW OR NO CLOUDS BELOW 12,000 FEET WITH NO
SIGNIFICANT WEATHER AND/OR OBSTRUCTIONS TO VISISBILITY.

NORTHEAST MONTANA


CITY           SKY/WX    TMP DP  RH WIND       PRES   REMARKS
GLASGOW        CLEAR     52  36  54 S6        29.88F
6HR MIN TEMP:  51; 6HR MAX TEMP:  60;

PLENTYWOOD       N/A     50  45  83 W3          N/A
WOLF POINT     CLEAR     49  46  90 CALM      29.90S
JORDAN           N/A     42  37  82 W3        29.94R
WINNETT          N/A     44  32  62 CALM        N/A
SIDNEY         CLEAR     55  48  76 SE5       29.91S
GLENDIVE       CLEAR     52  45  76 W3        29.95R
MALTA            N/A     52  41  66 W1          N/A

FORT PECK REPORTS


CITY           SKY/WX    TMP DP  RH WIND       PRES   REMARKS
FORT PECK        N/A     65  45  48 SW18        N/A
THE PINES        N/A     58  42  55 SW12        N/A

SOUTHEAST MONTANA


CITY           SKY/WX    TMP DP  RH WIND       PRES   REMARKS
BILLINGS       CLEAR     58  38  47 SW7       30.01R
MILES CITY     CLEAR     54  50  86 SE7       29.96R
BAKER          CLEAR     49  46  90 CALM      29.97R
LIVINGSTON     CLEAR     52  32  46 W9        30.07S

CENTRAL MONTANA


CITY           SKY/WX    TMP DP  RH WIND       PRES   REMARKS
HAVRE          CLEAR     55  38  52 SW20      29.85S
LEWISTOWN      CLEAR     55  34  45 SW9       29.98S
GREAT FALLS    CLEAR     54  36  50 SW18G28   29.94R
CUT BANK       CLEAR     53  37  54 W18       29.91S
HELENA         CLEAR     56  36  47 CALM      30.07R
BUTTE          CLEAR     37  30  75 SE5       30.15S
BOZEMAN        CLEAR     42  36  79 SE6       30.10R

WESTERN MONTANA


CITY           SKY/WX    TMP DP  RH WIND       PRES   REMARKS
MISSOULA       CLOUDY    48  40  73 CALM      30.13R
KALISPELL      NOT AVBL

NORTH DAKOTA


CITY           SKY/WX    TMP DP  RH WIND       PRES   REMARKS
WILLISTON      CLEAR     55  51  86 W9        29.88R
DICKINSON      CLEAR     52  49  89 NW7       29.89R
MINOT          CLEAR     61  50  67 W10       29.80R
BISMARCK       CLOUDY    68  65  90 W8        29.81R

SOUTHERN SASKATCHEWAN


CITY           SKY/WX    TMP DP  RH WIND       PRES   REMARKS
REGINA         CLEAR     52  46  82 SW13      29.75S
MOOSE JAW      PTCLDY    55  46  71 SW17G23   29.73F
ESTEVAN        PTCLDY    54  54 100 W9        29.82S
SWIFT CURRENT  CLEAR     48  43  81 SW17      29.73F




USA.gov is the U.S. government's official web portal to all federal, state and local government web resources and services.